TimePST,TemperatureF,Dew PointF,Humidity,Sea Level PressureIn,VisibilityMPH,Wind Direction,Wind SpeedMPH,Gust SpeedMPH,PrecipitationIn,Events,Conditions,WindDirDegrees,DateUTC
12:52 AM,24.1,15.1,69,30.26,-9999.0,SW,3.5,-,N/A,,Unknown,220,2013-02-26 08:52:00
1:52 AM,25.0,15.1,66,30.26,-9999.0,West,3.5,-,N/A,,Unknown,280,2013-02-26 09:52:00
2:52 AM,18.0,12.9,81,30.28,-9999.0,South,5.8,-,N/A,,Unknown,170,2013-02-26 10:52:00
3:52 AM,17.1,12.0,81,30.31,-9999.0,South,8.1,-,N/A,,Unknown,180,2013-02-26 11:52:00
4:52 AM,18.0,12.9,81,30.34,-9999.0,South,4.6,-,N/A,,Unknown,180,2013-02-26 12:52:00
5:52 AM,15.1,10.9,84,30.36,-9999.0,South,8.1,-,N/A,,Unknown,170,2013-02-26 13:52:00
6:52 AM,18.0,12.9,81,30.36,-9999.0,SE,9.2,-,N/A,,Unknown,130,2013-02-26 14:52:00
7:52 AM,26.1,18.0,71,30.38,-9999.0,SE,5.8,-,N/A,,Unknown,130,2013-02-26 15:52:00
8:52 AM,30.9,16.0,54,30.38,-9999.0,SSE,5.8,-,N/A,,Unknown,150,2013-02-26 16:52:00
9:52 AM,32.0,12.9,45,30.38,-9999.0,Calm,Calm,-,N/A,,Unknown,0,2013-02-26 17:52:00
10:52 AM,35.1,12.9,40,30.36,-9999.0,Variable,5.8,-,N/A,,Unknown,0,2013-02-26 18:52:00
11:52 AM,37.0,12.0,36,30.34,-9999.0,South,8.1,-,N/A,,Unknown,180,2013-02-26 19:52:00
12:52 PM,39.0,10.9,32,30.32,-9999.0,SSW,8.1,16.1,N/A,,Unknown,210,2013-02-26 20:52:00
1:52 PM,39.9,10.9,31,30.30,-9999.0,WSW,9.2,17.3,N/A,,Unknown,250,2013-02-26 21:52:00
2:52 PM,41.0,10.9,29,30.32,-9999.0,Variable,6.9,-,N/A,,Unknown,0,2013-02-26 22:52:00
3:52 PM,41.0,10.0,28,30.32,-9999.0,SSW,9.2,-,N/A,,Unknown,210,2013-02-26 23:52:00
4:52 PM,37.9,10.9,33,30.32,-9999.0,SSW,5.8,-,N/A,,Unknown,200,2013-02-27 00:52:00
5:52 PM,30.9,10.9,43,30.33,-9999.0,South,6.9,-,N/A,,Unknown,170,2013-02-27 01:52:00
6:52 PM,28.0,12.9,53,30.35,-9999.0,SSE,4.6,-,N/A,,Unknown,150,2013-02-27 02:52:00
7:52 PM,27.0,14.0,58,30.33,-9999.0,SE,10.4,-,N/A,,Unknown,140,2013-02-27 03:52:00
8:52 PM,28.0,12.0,51,30.33,-9999.0,Calm,Calm,-,N/A,,Unknown,0,2013-02-27 04:52:00
9:52 PM,26.1,14.0,60,30.34,-9999.0,NNW,3.5,-,N/A,,Unknown,330,2013-02-27 05:52:00
10:52 PM,23.0,14.0,68,30.35,-9999.0,South,4.6,-,N/A,,Unknown,180,2013-02-27 06:52:00
11:52 PM,27.0,16.0,63,30.34,-9999.0,SE,11.5,-,N/A,,Unknown,140,2013-02-27 07:52:00